Regional Weather Roundup
Issued by NWS

Home | Current Version | Previous Version | Graphics & Text | Print | Product List | Glossary On
Versions: 1 2 3 4 5 6 7 8 9 10 11 12 13 14 15 16 17 18 19 20 21 22 23 24 25 26 27 28 29 30 31 32 33 34 35 36 37 38 39 40 41 42 43 44 45 46 47 48 49 50
000
ASUS43 KFSD 211110
RWRSD

WEATHER ROUNDUP FOR SOUTH DAKOTA
NATIONAL WEATHER SERVICE SIOUX FALLS SD
500 AM CST SAT JAN 21 2017

NOTE: "FAIR" INDICATES FEW OR NO CLOUDS BELOW 12,000 FEET WITH NO
SIGNIFICANT WEATHER AND/OR OBSTRUCTIONS TO VISIBILITY.


SDZ001>005-009-010-012>017-211200-
NORTHWEST AND NORTH CENTRAL SOUTH DAKOTA

CITY           SKY/WX    TMP DP  RH WIND       PRES   REMARKS
BUFFALO          N/A     32  29  88 W17       29.25F WCI  21
FAITH            N/A     29  29 100 NW9       29.31S WCI  20
MOBRIDGE       CLOUDY    29  26  89 CALM      29.28R FOG
$$

SDZ012>016-024>037-041>051-057-063-072>074-211200-
SOUTHWEST AND SOUTH CENTRAL SOUTH DAKOTA

CITY           SKY/WX    TMP DP  RH WIND       PRES   REMARKS
RAPID CTY ARPT CLOUDY    33  30  88 N9        29.34S WCI  25
PIERRE         CLOUDY    26  25  96 W6        29.32S WCI  19
CUSTER         CLOUDY    26  23  88 W6        29.31S WCI  19
ELLSWORTH AFB  CLOUDY    34  32  93 N9        29.33F WCI  26
PHILIP         CLOUDY    34  32  92 NW12      29.33R WCI  25
PINE RIDGE     CLOUDY    31  30  96 W8        29.36S WCI  23
SPEARFISH      MOCLDY    30  30 100 W7        29.34S WCI  23
WINNER         CLOUDY    28  25  88 W6        29.35R WCI  22
$$

SDZ004>011-016>023-039-040-211200-
NORTHEAST SOUTH DAKOTA

CITY           SKY/WX    TMP DP  RH WIND       PRES   REMARKS
ABERDEEN       CLOUDY    31  29  92 CALM      29.33S FOG
WATERTOWN      FOG       35  35 100 SE5       29.31F VSB 1/2
BROOKINGS      MIX PCPN  36  34  93 SE12      29.32F FOG
SISSETON         N/A     33  33 100 SE7       29.36F WCI  27
$$

SDZ017-020-022-023-036>040-048>070-211200-
SOUTHEAST SOUTH DAKOTA

CITY           SKY/WX    TMP DP  RH WIND       PRES   REMARKS
SIOUX FALLS    FOG       36  36 100 SE7       29.34F VSB 1/4
HURON          CLOUDY    25  24  96 NW10      29.33S WCI  15
CHAMBERLAIN    CLOUDY    26  26  99 SW8       29.34S FOG     WCI  18
MITCHELL       MOCLDY    34  32  92 W3        29.34S
YANKTON        PTCLDY    37  36  93 CALM      29.33S
$$

ABBREVIATIONS USED IN REMARKS
   TC - TEMPERATURE IN CELSIUS
  WCI - WIND CHILL INDEX
   HX - HEAT INDEX
  VSB - VISIBILITY




USA.gov is the U.S. government's official web portal to all federal, state and local government web resources and services.